QPF
0.00 0.00 0.00 0.01 0.00 0.00 0.00 0.00 0.00 0.00 0.00 0.00 0.00 0.00 0.00 0.00 0.00 0.00 0.00 0.00 0.00 0.00 0.00 0.00 0.00 0.00 0.00 0.00 0.00 0.00 0.00 0.00 0.00
0.00 0.01 0.00 0.00 0.00 0.00 0.00 0.00 0.00 0.00 0.00 0.00 0.00 0.00 0.00 0.00 0.00 0.00 0.00 0.00 0.00 0.00 0.00 0.00 0.00 0.00 0.00 0.00 0.00 0.00 0.00 0.00 0.00
0.02 0.02 0.00 0.00 0.00 0.00 0.00 0.00 0.00 0.00 0.00 0.00 0.00 0.00 0.00 0.00 0.00 0.00 0.00 0.00 0.00 0.00 0.00 0.00 0.00 0.00 0.00 0.00 0.00 0.00 0.00 0.00 0.00
0.01 0.01 0.01 0.00 0.00 0.00 0.00 0.00 0.00 0.00 0.00 0.00 0.00 0.00 0.00 0.00 0.00 0.00 0.00 0.00 0.00 0.00 0.00 0.00 0.00 0.00 0.00 0.00 0.00 0.00 0.00 0.00 0.00
0.00 0.00 0.00 0.01 0.00 0.00 0.00 0.00 0.00 0.00 0.00 0.00 0.00 0.00 0.00 0.00 0.00 0.00 0.00 0.00 0.00 0.00 0.00 0.00 0.00 0.00 0.00 0.00 0.00 0.00 0.00 0.00 0.00
0.00 0.00 0.00 0.00 0.00 0.00 0.00 0.00 0.00 0.00 0.00 0.00 0.00 0.00 0.00 0.00 0.00 0.00 0.00 0.00 0.00 0.00 0.00 0.00 0.00 0.00 0.00 0.00 0.00 0.00 0.00 0.00 0.00
0.00 0.00 0.00 0.00 0.00 0.00 0.00 0.00 0.00 0.00 0.00 0.00 0.00 0.00 0.00 0.00 0.00 0.00 0.00 0.00 0.00 0.00 0.00 0.00 0.00 0.00 0.00 0.00 0.00 0.00 0.00 0.00 0.00
0.00 0.00 0.00 0.00 0.00 0.00 0.00 0.00 0.00 0.00 0.00 0.00 0.00 0.00 0.00 0.00 0.00 0.00 0.00 0.00 0.00 0.00 0.00 0.00 0.00 0.00 0.00 0.00 0.00 0.00 0.00 0.00 0.00
0.01 0.00 0.00 0.02 0.01 0.00 0.00 0.00 0.00 0.00 0.00 0.00 0.00 0.00 0.00 0.00 0.00 0.00 0.00 0.00 0.00 0.00 0.00 0.00 0.00 0.00 0.00 0.00 0.00 0.00 0.00 0.00 0.00
0.00 0.00 0.01 0.03 0.10 0.02 0.00 0.00 0.00 0.00 0.00 0.00 0.00 0.00 0.00 0.00 0.00 0.00 0.00 0.00 0.00 0.00 0.00 0.00 0.00 0.00 0.00 0.00 0.00 0.00 0.00 0.00 0.00
0.01 0.00 0.01 0.00 0.01 0.01 0.01 0.01 0.02 0.01 0.00 0.00 0.00 0.00 0.00 0.00 0.00 0.00 0.00 0.00 0.00 0.00 0.00 0.00 0.00 0.00 0.00 0.00 0.00 0.00 0.00 0.00 0.00
0.05 0.04 0.02 0.01 0.02 0.04 0.02 0.01 0.02 0.03 0.04 0.03 0.02 0.00 0.00 0.00 0.00 0.00 0.00 0.00 0.00 0.00 0.00 0.00 0.00 0.00 0.00 0.00 0.00 0.01 0.01 0.01 0.01
0.08 0.03 0.03 0.05 0.03 0.00 0.00 0.01 0.01 0.01 0.00 0.01 0.03 0.01 0.00 0.00 0.00 0.00 0.00 0.00 0.00 0.00 0.00 0.00 0.00 0.00 0.00 0.00 0.00 0.00 0.01 0.01 0.01
0.10 0.11 0.04 0.07 0.01 0.00 0.00 0.00 0.00 0.00 0.00 0.00 0.00 0.00 0.00 0.00 0.00 0.00 0.00 0.00 0.00 0.00 0.00 0.00 0.00 0.00 0.00 0.00 0.00 0.00 0.00 0.00 0.01
0.05 0.06 0.06 0.03 0.03 0.00 0.00 0.01 0.00 0.00 0.00 0.00 0.00 0.00 0.00 0.00 0.00 0.00 0.00 0.00 0.00 0.00 0.00 0.00 0.00 0.00 0.00 0.00 0.00 0.00 0.00 0.00 0.01
0.02 0.01 0.02 0.04 0.05 0.01 0.00 0.00 0.00 0.00 0.00 0.00 0.00 0.00 0.00 0.00 0.00 0.00 0.00 0.00 0.00 0.00 0.00 0.00 0.00 0.00 0.00 0.00 0.00 0.00 0.01 0.02 0.03
0.07 0.05 0.02 0.00 0.00 0.00 0.00 0.00 0.00 0.00 0.00 0.00 0.00 0.00 0.00 0.00 0.00 0.00 0.00 0.00 0.00 0.00 0.00 0.00 0.00 0.00 0.00 0.00 0.00 0.00 0.00 0.01 0.02
0.14 0.16 0.13 0.10 0.05 0.01 0.00 0.00 0.00 0.00 0.00 0.00 0.00 0.00 0.00 0.00 0.00 0.00 0.00 0.00 0.00 0.00 0.00 0.00 0.00 0.00 0.00 0.00 0.00 0.00 0.00 0.00 0.00
0.07 0.08 0.06 0.05 0.03 0.02 0.00 0.00 0.00 0.00 0.00 0.00 0.00 0.00 0.00 0.01 0.00 0.00 0.00 0.00 0.00 0.00 0.00 0.00 0.00 0.00 0.00 0.00 0.00 0.00 0.00 0.00 0.00
0.16 0.10 0.08 0.05 0.02 0.01 0.00 0.00 0.00 0.00 0.00 0.00 0.00 0.00 0.01 0.02 0.02 0.01 0.00 0.00 0.00 0.00 0.00 0.00 0.00 0.00 0.00 0.00 0.00 0.00 0.00 0.00 0.00
MSLP
1015.89 1015.94 1015.99 1016.04 1016.16 1016.28 1016.36 1016.49 1016.57 1016.68 1016.79 1016.83 1016.93 1017.19 1017.38 1017.56 1017.60 1017.58 1017.60 1017.59 1017.52 1017.61 1017.71 1017.73 1017.73 1017.70 1017.71 1017.77 1017.78 1017.79 1017.74 1017.70 1017.69
1015.86 1015.89 1015.97 1016.04 1016.18 1016.32 1016.44 1016.56 1016.65 1016.69 1016.72 1016.79 1016.85 1017.06 1017.32 1017.61 1017.64 1017.72 1017.65 1017.57 1017.46 1017.50 1017.54 1017.58 1017.65 1017.75 1017.77 1017.80 1017.81 1017.87 1017.91 1017.93 1017.90
1015.62 1015.76 1015.88 1015.99 1016.15 1016.30 1016.39 1016.52 1016.63 1016.78 1016.80 1016.83 1016.89 1017.03 1017.29 1017.51 1017.68 1017.71 1017.64 1017.37 1017.39 1017.52 1017.66 1017.75 1017.74 1017.71 1017.71 1017.79 1017.85 1017.93 1017.96 1017.98 1018.02
1015.51 1015.60 1015.70 1015.88 1016.06 1016.22 1016.36 1016.52 1016.62 1016.74 1016.81 1016.86 1016.93 1017.02 1017.22 1017.56 1017.61 1017.55 1017.72 1017.36 1017.25 1017.46 1017.66 1017.77 1017.83 1017.87 1017.89 1017.88 1017.93 1017.93 1017.94 1017.99 1018.04
1015.50 1015.53 1015.65 1015.75 1015.86 1016.01 1016.24 1016.41 1016.53 1016.63 1016.72 1016.82 1016.93 1017.07 1017.20 1017.41 1017.60 1017.55 1017.51 1017.43 1017.28 1017.42 1017.60 1017.73 1017.81 1017.85 1017.89 1017.93 1017.94 1017.93 1017.97 1018.02 1018.06
1015.43 1015.52 1015.53 1015.52 1015.69 1015.83 1016.00 1016.17 1016.32 1016.47 1016.59 1016.67 1016.76 1016.93 1017.15 1017.38 1017.48 1017.47 1017.37 1017.25 1017.09 1017.23 1017.42 1017.54 1017.68 1017.75 1017.83 1017.90 1017.93 1017.93 1017.91 1017.96 1018.02
1014.91 1015.10 1015.27 1015.36 1015.46 1015.62 1015.80 1015.96 1016.05 1016.26 1016.60 1016.68 1016.66 1016.84 1016.95 1017.14 1017.18 1017.21 1017.11 1017.13 1016.89 1016.95 1017.15 1017.30 1017.36 1017.47 1017.57 1017.66 1017.73 1017.80 1017.86 1017.89 1017.86
1014.77 1014.88 1014.96 1015.11 1015.29 1015.52 1015.62 1015.80 1015.97 1016.12 1016.31 1016.61 1016.74 1016.71 1016.74 1016.78 1016.80 1016.68 1016.65 1016.67 1016.62 1016.60 1016.78 1016.93 1017.01 1017.05 1017.06 1017.14 1017.28 1017.37 1017.43 1017.54 1017.60
1014.22 1014.34 1014.55 1014.78 1014.88 1015.20 1015.39 1015.58 1015.73 1015.95 1016.07 1016.21 1016.40 1016.41 1016.44 1016.41 1016.41 1016.40 1016.25 1016.24 1016.23 1016.13 1016.32 1016.51 1016.64 1016.69 1016.74 1016.82 1016.90 1016.96 1017.05 1017.14 1017.19
1013.69 1013.69 1013.93 1014.12 1014.51 1014.75 1015.09 1015.29 1015.38 1015.60 1015.70 1015.81 1015.98 1016.05 1016.06 1016.04 1015.98 1016.02 1015.92 1015.79 1015.92 1015.83 1015.82 1016.00 1016.09 1016.18 1016.26 1016.29 1016.36 1016.48 1016.57 1016.69 1016.78
1012.94 1013.24 1013.36 1013.56 1013.88 1014.15 1014.51 1014.88 1015.26 1015.28 1015.32 1015.48 1015.49 1015.54 1015.59 1015.55 1015.52 1015.45 1015.53 1015.52 1015.51 1015.60 1015.48 1015.39 1015.48 1015.60 1015.73 1015.88 1015.95 1015.98 1016.01 1016.07 1016.22
1012.42 1012.65 1012.90 1012.96 1013.28 1013.79 1014.23 1014.57 1014.76 1014.93 1015.18 1015.21 1015.28 1015.13 1015.14 1015.12 1015.03 1015.03 1014.98 1015.03 1015.12 1015.08 1015.05 1014.95 1014.87 1014.96 1015.08 1015.16 1015.23 1015.31 1015.40 1015.53 1015.66
1012.19 1012.54 1012.52 1012.53 1012.99 1013.37 1013.93 1014.28 1014.48 1014.67 1014.75 1014.84 1014.84 1014.84 1014.49 1014.39 1014.48 1014.37 1014.41 1014.50 1014.51 1014.60 1014.64 1014.57 1014.45 1014.48 1014.54 1014.54 1014.58 1014.62 1014.75 1014.83 1014.95
1012.58 1012.58 1012.29 1012.15 1012.67 1013.14 1013.57 1013.88 1014.12 1014.39 1014.49 1014.45 1014.38 1014.34 1014.25 1014.01 1013.71 1013.67 1013.60 1013.77 1013.81 1013.88 1013.88 1013.91 1013.89 1013.91 1013.97 1013.98 1014.04 1014.08 1014.06 1014.18 1014.22
1012.22 1012.35 1012.18 1011.78 1012.38 1012.89 1013.34 1013.67 1013.87 1014.00 1014.15 1014.25 1014.16 1013.97 1013.81 1013.72 1013.53 1013.30 1013.07 1013.10 1012.95 1013.02 1013.14 1013.12 1013.30 1013.39 1013.36 1013.35 1013.31 1013.36 1013.40 1013.34 1013.39
1011.53 1011.91 1011.82 1011.94 1012.31 1012.58 1012.95 1013.25 1013.69 1013.91 1013.96 1014.30 1014.10 1013.84 1013.49 1013.26 1013.04 1012.87 1012.72 1012.63 1012.36 1012.35 1012.28 1012.41 1012.31 1012.34 1012.53 1012.54 1012.52 1012.61 1012.70 1012.64 1012.83
1011.35 1011.64 1011.26 1011.63 1012.11 1012.19 1012.69 1013.02 1013.43 1013.63 1013.77 1014.13 1014.41 1014.06 1013.36 1012.78 1012.31 1012.21 1012.10 1011.93 1011.76 1011.83 1011.58 1011.47 1011.51 1011.56 1011.56 1011.59 1011.70 1011.80 1011.91 1011.99 1012.05
1011.06 1011.45 1011.61 1012.09 1012.15 1012.03 1012.46 1012.74 1013.21 1013.60 1013.68 1013.74 1013.90 1013.84 1013.37 1013.06 1012.04 1011.78 1011.56 1011.39 1011.23 1011.08 1010.94 1010.89 1010.79 1010.83 1010.97 1010.92 1010.99 1011.12 1011.21 1011.34 1011.25
1010.83 1011.22 1011.63 1011.97 1012.19 1012.51 1012.32 1012.77 1013.03 1013.39 1013.50 1013.53 1013.33 1013.14 1013.04 1012.97 1011.74 1011.41 1011.09 1010.96 1010.70 1010.56 1010.45 1010.37 1010.13 1010.18 1010.16 1010.19 1010.22 1010.27 1010.42 1010.60 1010.61
1010.85 1011.29 1011.58 1011.89 1012.52 1012.42 1012.79 1012.68 1012.87 1013.08 1013.18 1013.08 1012.83 1012.71 1012.44 1012.31 1012.12 1010.76 1010.47 1010.35 1009.97 1009.54 1009.55 1009.53 1009.49 1009.28 1009.23 1009.27 1009.44 1009.61 1009.68 1009.75 1009.83
Thickness
5726 5727 5727 5728 5728 5728 5727 5726 5726 5724 5723 5723 5721 5719 5716 5715 5716 5715 5715 5714 5714 5714 5713 5713 5713 5713 5712 5711 5710 5709 5708 5707 5706
5723 5722 5722 5722 5722 5722 5722 5721 5721 5721 5721 5720 5719 5717 5715 5712 5713 5712 5712 5712 5711 5711 5711 5711 5710 5709 5709 5708 5707 5706 5705 5703 5702
5721 5720 5719 5718 5718 5717 5717 5717 5716 5715 5715 5716 5716 5715 5713 5711 5709 5709 5709 5710 5709 5707 5706 5705 5705 5705 5705 5704 5703 5702 5701 5700 5699
5717 5717 5717 5716 5715 5714 5713 5711 5710 5710 5710 5711 5711 5711 5710 5708 5707 5707 5705 5706 5706 5704 5702 5701 5700 5700 5700 5699 5698 5698 5697 5696 5695
5712 5712 5712 5712 5711 5710 5708 5708 5707 5706 5705 5705 5705 5705 5705 5704 5702 5703 5703 5702 5702 5700 5699 5697 5696 5696 5696 5695 5695 5695 5693 5691 5691
5706 5706 5707 5707 5706 5706 5704 5703 5703 5702 5702 5701 5701 5700 5699 5699 5699 5698 5699 5699 5699 5698 5696 5695 5693 5692 5691 5690 5690 5689 5689 5688 5687
5704 5703 5702 5702 5702 5701 5699 5699 5699 5698 5696 5696 5696 5696 5696 5695 5694 5694 5693 5693 5695 5694 5693 5692 5691 5690 5688 5687 5686 5685 5684 5683 5683
5697 5698 5698 5696 5696 5696 5695 5694 5693 5693 5693 5690 5690 5691 5691 5691 5691 5690 5690 5690 5690 5690 5690 5689 5688 5688 5687 5686 5684 5683 5682 5681 5680
5694 5693 5693 5692 5693 5691 5691 5690 5689 5688 5688 5687 5686 5685 5686 5687 5687 5687 5687 5687 5687 5687 5686 5686 5685 5685 5684 5683 5682 5681 5680 5678 5677
5688 5689 5689 5689 5689 5687 5685 5685 5685 5684 5684 5684 5683 5682 5682 5682 5683 5684 5684 5684 5683 5685 5685 5683 5683 5682 5681 5680 5679 5678 5677 5676 5674
5686 5684 5684 5683 5683 5681 5681 5680 5679 5679 5679 5679 5679 5679 5679 5680 5680 5682 5681 5682 5681 5680 5680 5681 5679 5679 5678 5677 5676 5676 5675 5674 5673
5677 5678 5677 5677 5675 5673 5673 5672 5671 5672 5670 5673 5673 5674 5676 5677 5677 5678 5679 5680 5679 5678 5677 5677 5678 5677 5676 5675 5675 5673 5672 5671 5669
5667 5665 5667 5669 5665 5665 5664 5664 5664 5665 5665 5665 5665 5666 5671 5673 5674 5675 5677 5677 5676 5675 5673 5673 5673 5674 5673 5672 5671 5670 5669 5669 5667
5650 5653 5659 5660 5655 5654 5654 5655 5656 5656 5657 5660 5660 5661 5664 5668 5670 5673 5675 5675 5675 5674 5673 5672 5671 5671 5670 5668 5667 5666 5666 5665 5665
5637 5641 5645 5650 5648 5645 5644 5644 5646 5648 5649 5651 5655 5656 5658 5660 5663 5666 5668 5669 5671 5671 5670 5670 5669 5667 5666 5666 5666 5664 5663 5663 5663
5627 5629 5633 5637 5637 5636 5635 5636 5636 5637 5639 5639 5642 5648 5653 5656 5659 5660 5662 5663 5665 5666 5667 5667 5668 5666 5663 5662 5663 5662 5661 5661 5659
5614 5617 5625 5626 5627 5629 5626 5626 5627 5629 5628 5627 5625 5631 5642 5649 5653 5655 5657 5659 5659 5661 5663 5663 5663 5662 5660 5660 5659 5658 5657 5656 5655
5601 5606 5611 5612 5615 5618 5617 5618 5618 5617 5619 5620 5620 5619 5626 5633 5643 5647 5650 5652 5654 5656 5656 5656 5657 5656 5654 5655 5654 5652 5651 5650 5650
5587 5594 5600 5599 5601 5602 5606 5606 5608 5609 5612 5611 5614 5618 5620 5622 5635 5639 5642 5642 5645 5646 5648 5650 5650 5649 5649 5648 5648 5646 5645 5644 5643
5572 5581 5588 5590 5588 5594 5593 5596 5599 5600 5604 5606 5608 5610 5613 5615 5614 5630 5637 5635 5639 5642 5640 5642 5642 5643 5644 5644 5642 5640 5638 5637 5637